Location: Engelmannsreuth
(49.8125°N, 11.6497°E)
Time: 19:34:09
(UTC+00:00)

Cosmos 2219 Rocket - Pass Details

Date: 17 February 2020
Orbit: 828 x 846 km, 71.0° (Epoch: 05 April)

Event Time Altitude Azimuth Distance (km) Brightness Sun altitude
Exits shadow 04:14:50 19° 323° (NW) 1,938 3.8 -21.0°
Maximum altitude 04:14:56 19° 325° (NW) 1,938 3.8 -20.9°
Drops below altitude 10° 04:18:51 10° 8° (N) 2,479 4.8 -20.3°
Sets 04:22:06 0° 27° (NNE) 3,416 5.8 -19.8°
